User: anonymous   Login
Location: Unspecified
(0.0000°N, 0.0000°E)
Time: 18:54:13
(UTC+00:00)
Language:

Kosmos-1802 - Orbit

View from above orbital plane
View from above orbital plane
View from above satellite
View from above satellite

Ground track
Ground track

The orbit data is extracted from the following two-line orbital elements,

1 17159U 86093A   18174.57345889  .00000043  00000-0  31164-4 0  9995
2 17159  82.9279 176.8573 0041365 305.8704 202.4356 13.72726836581860
Epoch (UTC): 23 June 2018 13:45:46
Eccentricity: 0.0041365
inclination: 82.9279°
perigee height: 959 km
apogee height: 1020 km
right ascension of ascending node: 176.8573°
argument of perigee: 305.8704°
revolutions per day: 13.72726836
mean anomaly at epoch: 202.4356°
orbit number at epoch: 58186

The dashed part of the orbit path shows where the satellite is in the earth's shadow,  

DLR